Flag for Hong Kong Weather past 2 weeks in Hong Kong, Hong Kong

81 °F

Passing clouds.

Feels Like: 85 °F
Forecast: 79 / 87 °F
Wind: 7 mph from Southwest

Location: National Airport

Current Time: Oct 8, 2015 at 3:28:16 AM

Latest Report: Oct 8, 2015 at 3:00 AM

Visibility: N/A

Pressure: 29.83 "Hg

Humidity: 79%

Dew point: 73 °F

Location of Hong KongLocation

Historic Weather in Hong Kong — Graph


Hong Kong temperature yesterday

Maximum temperature yesterday: 84 °F (at 8:30 AM)
Minimum temperature yesterday: 81 °F (at 1:30 AM)
Average temperature yesterday: 82 °F

Past Weeks' High & Low Weather Summary

High93 °F (Sep 26, 2:00 PM)94% (Oct 3, 10:00 PM)30.01 "Hg (Oct 3, 10:00 PM)
Low77 °F (Oct 3, 10:00 PM)38% (Sep 29, 2:30 AM)29.59 "Hg (Sep 25, 4:30 PM)
Average85 °F72%29.82 "Hg
* Reported Sep 23 2:00 AM — Oct 8 2:00 AM, Hong Kong, Weather by CustomWeather, © 2015

Note: Actual official high and low records may vary slightly from our data, if they occured in-between our weather recording intervals... More about our weather records


Hong Kong weather history for previous 24 hours

Time TempWeatherWind HumidityBarometerVisibility
2:00 AM
Thu, Oct 8
81 °FPassing clouds.7 mph84%29.86 "HgN/A
1:30 AM81 °FPassing clouds.6 mph84%29.86 "HgN/A
1:00 AM81 °FPassing clouds.3 mph84%29.86 "HgN/A
12:30 AM82 °FPassing clouds.2 mph79%29.89 "HgN/A
12:00 AM82 °FPassing clouds.3 mph79%29.89 "HgN/A
11:30 PM
Wed, Oct 7
81 °FPassing clouds.2 mph84%29.89 "HgN/A
11:00 PM82 °FPassing clouds.6 mph79%29.89 "HgN/A
10:30 PM81 °FPassing clouds.6 mph84%29.89 "HgN/A
10:00 PM82 °FPassing clouds.5 mph74%29.89 "HgN/A
9:30 PM82 °FPassing clouds.7 mph74%29.89 "HgN/A
9:00 PM82 °FPassing clouds.2 mph74%29.89 "HgN/A
8:30 PM81 °FPassing clouds.5 mph79%29.89 "HgN/A
8:00 PM81 °FPassing clouds.3 mph79%29.86 "HgN/A
7:30 PM81 °FPassing clouds.6 mph79%29.86 "HgN/A
7:00 PM81 °FPassing clouds.5 mph79%29.86 "HgN/A
6:30 PM81 °FSprinkles. Passing clouds.8 mph79%29.86 "HgN/A
6:00 PM82 °FPassing clouds.6 mph79%29.86 "HgN/A
5:30 PM82 °FPassing clouds.5 mph79%29.86 "HgN/A
5:00 PM84 °FPassing clouds.6 mph79%29.86 "HgN/A
4:30 PM82 °FScattered clouds.3 mph79%29.86 "HgN/A
4:00 PM84 °FScattered clouds.3 mph74%29.86 "HgN/A
3:30 PM82 °FScattered clouds.5 mph84%29.86 "HgN/A
3:00 PM82 °FSprinkles. Scattered clouds.6 mph84%29.86 "HgN/A
2:30 PM82 °FSprinkles. Scattered clouds.3 mph84%29.86 "HgN/A
2:00 PM81 °FSprinkles. Scattered clouds.6 mph94%29.89 "Hg5 mi
1:30 PM82 °FSprinkles. Scattered clouds.3 mph79%29.89 "HgN/A
1:00 PM82 °FSprinkles. Scattered clouds.5 mph84%29.89 "HgN/A
12:30 PM82 °FScattered clouds.5 mph84%29.92 "HgN/A
12:00 PM82 °FScattered clouds.5 mph84%29.92 "HgN/A
11:30 AM82 °FSprinkles. Scattered clouds.5 mph84%29.95 "HgN/A
11:00 AM82 °FSprinkles. Scattered clouds.3 mph79%29.95 "HgN/A
10:30 AM81 °FSprinkles. Scattered clouds.13 mph84%29.95 "HgN/A
10:00 AM84 °FScattered clouds.12 mph74%29.95 "HgN/A
9:30 AM84 °FScattered clouds.13 mph74%29.95 "HgN/A
9:00 AM84 °FScattered clouds.9 mph74%29.95 "HgN/A
8:30 AM84 °FScattered clouds.8 mph74%29.92 "HgN/A
8:00 AM82 °FScattered clouds.7 mph79%29.92 "HgN/A
7:30 AM82 °FScattered clouds.7 mph79%29.92 "HgN/A
7:00 AM82 °FScattered clouds.5 mph84%29.89 "HgN/A
6:30 AM81 °FScattered clouds.3 mph89%29.89 "HgN/A
6:00 AM81 °FPassing clouds.2 mph89%29.89 "HgN/A
5:30 AM81 °FPassing clouds.3 mph84%29.89 "HgN/A
5:00 AM81 °FPassing clouds.6 mph89%29.86 "HgN/A
4:30 AM81 °FPassing clouds.6 mph89%29.86 "HgN/A
4:00 AM81 °FPassing clouds.7 mph89%29.86 "HgN/A
3:30 AM81 °FPassing clouds.6 mph89%29.86 "HgN/A
3:00 AM81 °FPassing clouds.7 mph84%29.89 "HgN/A
Weather by CustomWeather, © 2015

See weather overviewHow to use our weather pages